Preview of NWS' New Version of Forecast
This preview is not operational and should not be used for support decisions.

Regional Weather Roundup (RWR)

Issued by National Weather Service (NWS)

                            
000
ASUS43 KDMX 171706
RWRIA 

WEATHER ROUNDUP FOR IOWA
NATIONAL WEATHER SERVICE DES MOINES IA
1200 PM CDT TUE SEP 17 2019

NOTE: "FAIR" INDICATES FEW OR NO CLOUDS BELOW 12,000 FEET WITH NO
SIGNIFICANT WEATHER AND/OR OBSTRUCTIONS TO VISIBILITY.

* - THESE STATIONS ARE NOT NWS STATIONS...THUS NOT UNDER NWS
QUALITY CONTROL.  THEY ALSO DO NOT REPORT WEATHER SUCH 
AS PRECIPITATION OR FOG.  

IAZ001>003-012>014-020>022-031>034-043>046-171800-
   NORTHWEST IOWA
  
CITY           SKY/WX    TMP DP  RH WIND       PRES   REMARKS
CARROLL *      SUNNY     86  70  58 S18G26    30.00F HX  90           
CHEROKEE *     SUNNY     84  73  68 S17G23    29.96S HX  90           
DENISON *      SUNNY     86  75  70 S14G23    30.00F HX  95           
LE MARS *      SUNNY     84  72  65 S20G29    29.91F HX  89           
SHELDON *      SUNNY     84  73  70 S14G25    29.91F HX  91           
SIOUX CITY     SUNNY     84  70  62 S20G28    29.92F HX  88           
SPENCER        SUNNY     86  70  58 S20G31    29.96F HX  90           
STORM LAKE *   SUNNY     84  72  65 S23       29.95F HX  89           
$$
 
IAZ055>058-069>071-079>083-090>094-171800-
   SOUTHWEST IOWA
  
CITY           SKY/WX    TMP DP  RH WIND       PRES   REMARKS
ATLANTIC *     SUNNY     86  72  62 S14G23    30.00F HX  92           
AUDUBON *        N/A     84  73  70 S13G22    30.03S HX  91           
CLARINDA *     SUNNY     86  73  66 S15       30.03F HX  93           
COUNCIL BLFS * SUNNY     86  70  58 S17       29.97F HX  90           
CRESTON *      SUNNY     86  70  58 S14G20    30.05F HX  90           
HARLAN  *      SUNNY     86  72  62 S17G25    29.99F HX  92           
LAMONI         SUNNY     83  70  64 S9        30.06F HX  87           
RED OAK *      SUNNY     86  72  62 S16G22    30.00F HX  92           
SHENANDOAH *   SUNNY     88  70  55 S16G23    29.99F HX  92           
$$
 
IAZ047>049-059>061-072>074-084-171800-
   CENTRAL IOWA
  
CITY           SKY/WX    TMP DP  RH WIND       PRES   REMARKS
AMES           SUNNY     84  71  65 S15       30.05F HX  89           
ANKENY *       SUNNY     82  72  69 S9        30.05F HX  87           
BOONE *        SUNNY     84  73  70 SE13      30.03F HX  91           
CHARITON *     SUNNY     84  75  74 SE9       30.06F HX  92           
DES MOINES     CLOUDY    84  70  62 SE12      30.04F HX  88           
GRINNELL*      SUNNY     81  71  71 SE10      30.10S HX  84           
KNOXVILLE *    SUNNY     82  73  74 SE9       30.06F HX  88           
MARSHALLTOWN   SUNNY     80  72  76 S14       30.06F HX  84           
NEWTON *       SUNNY     82  73  74 SE12      30.07F HX  88           
PELLA *        SUNNY     83  69  60 S8        30.08F HX  87           
PERRY *        FAIR      87  69  55 S10G20    30.03F HX  91           
$$
 
IAZ004>006-015-016-023>025-035-036-171800-
   NORTH CENTRAL IOWA
  
CITY           SKY/WX    TMP DP  RH WIND       PRES   REMARKS
ALGONA *       SUNNY     84  73  70 S21       29.99F HX  91           
CLARION *      SUNNY     84  72  65 S13G21    30.03F HX  89           
ESTHERVILLE    SUNNY     81  71  71 S23G33    29.96F HX  85           
FORT DODGE *   SUNNY     84  72  67 S14G21    30.02F HX  89           
MASON CITY     SUNNY     82  69  64 S12       30.06F HX  85           
FOREST CITY *  FAIR      82  72  69 S15       30.03F HX  87           
IOWA FALLS *     N/A     81  67  63 SE12      30.07F HX  84           
$$

IAZ007>011-017>019-026>030-037>042-050>054-066-171800-
   NORTHEAST IOWA
  
CITY           SKY/WX    TMP DP  RH WIND       PRES   REMARKS
CEDAR RAPIDS   FAIR      76  66  71 SE10      30.11S                  
CHARLES CITY * FAIR      79  68  69 SE13G18   30.08F HX  81           
CLINTON *      CLOUDY    69  66  90 SE12      30.16F FOG              
DECORAH *      FAIR      77  63  61 S10G18    30.09F                  
DUBUQUE        CLOUDY    67  65  93 SE12      30.16S FOG              
MONTICELLO *   FAIR      70  70 100 SE10      30.14S                  
OELWEIN *      SUNNY     79  68  69 S9        30.11S HX  81           
WATERLOO       FAIR      83  67  58 SE13      30.07F HX  85           
$$
 
IAZ064-065-067-068-078-171800-
   EAST CENTRAL IOWA
  
CITY           SKY/WX    TMP DP  RH WIND       PRES   REMARKS
DAVENPORT      CLOUDY    72  66  81 SE10      30.16F                  
IOWA CITY      FAIR      77  68  73 SE12      30.12F                  
MUSCATINE *    CLOUDY    73  68  83 SE8       30.13F                  
QUAD CITIES    CLOUDY    73  66  78 E8        30.14F HAZE             
$$
 
IAZ062-063-075>077-085>089-095>099-171800-
   SOUTHEAST IOWA
  
CITY           SKY/WX    TMP DP  RH WIND       PRES   REMARKS
BURLINGTON     MOSUNNY   74  67  78 E8        30.13F                  
FAIRFIELD *    SUNNY     81  72  74 S10       30.10F HX  84           
FORT MADISON * SUNNY     77  72  83 E6        30.12F                  
KEOKUK *       SUNNY     79  70  73 SE9       30.11S HX  81           
OSKALOOSA *    FAIR      83  70  65 S7        30.09F HX  86           
CENTERVILLE *  FAIR      81  75  83 SE7       30.10F HX  86           
OTTUMWA        SUNNY     81  70  69 S9        30.08F HX  84           
WASHINGTON *     N/A    N/A N/A N/A MISG        N/A                   
$$

ABBREVIATIONS USED IN REMARKS
   TC - TEMPERATURES IN CELSIUS
  WCI - WIND CHILL INDEX
   HX - HEAT INDEX
  VSB - VISIBILITY  
$$